Regional Weather Roundup
Issued by NWS New Orleans/Baton Rouge, LA

Home | Current Version | Previous Version | Graphics & Text | Print | Product List | Glossary On
Versions: 1 2 3 4 5 6 7 8 9 10 11 12 13 14 15 16 17 18 19 20 21 22 23 24 25 26 27 28 29 30 31 32 33 34 35 36 37 38 39 40 41 42 43 44 45 46 47 48 49 50
358
ASUS44 KLIX 201203
RWRLIX
NEW ORLEANS REGIONAL WEATHER ROUNDUP
NATIONAL WEATHER SERVICE NEW ORLEANS LA
700 AM CDT WED AUG 20 2014

NOTE: "FAIR" INDICATES FEW OR NO CLOUDS BELOW 12,000 FEET WITH NO
      SIGNIFICANT WEATHER AND/OR OBSTRUCTIONS TO VISIBILITY.
      SKY/WX - SKY CONDITION AND SIGNIFICANT WEATHER.
      TMP - AIR TEMPERATURE.     DP    - DEWPOINT TEMPERATURE.
      RH  - RELATIVE HUMIDITY.   PRES  - PRESSURE.
      HI  - HEAT INDEX.          WCI   - WIND CHILL INDEX.

*  THESE STATIONS ARE NOT NWS OR FAA STATIONS AND ARE NOT UNDER
   NWS QUALITY CONTROL.

LAZ038-040-048-061>063-065>067-069-201300-
SOUTHEAST LOUISIANA

CITY           SKY/WX    TMP DP  RH WIND       PRES   REMARKS
N.O. AUDUBON     N/A     79  78  98 MISG        N/A
6HR MIN TEMP:  78; 6HR MAX TEMP:  80;

N.O. INTL ARPT MOCLDY    78  75  90 CALM      30.03R
6HR MIN TEMP:  77; 6HR MAX TEMP:  80;

N.O. LAKEFRONT PTCLDY    81  76  84 CALM      30.03R
6HR MIN TEMP:  79; 6HR MAX TEMP:  82;

N.O. DOWNTOWN*   N/A     82  73  74 CALM      30.04R
6HR MIN TEMP:  81; 6HR MAX TEMP:  84;

SLIDELL        PTCLDY    74  72  93 CALM      30.03R
6HR MIN TEMP:  74; 6HR MAX TEMP:  78;

BATON ROUGE    PTCLDY    73  70  90 NE3       30.03R
6HR MIN TEMP:  72; 6HR MAX TEMP:  74;

BOOTHVILLE     CLEAR     84  77  79 SW7       30.04R
6HR MIN TEMP:  83; 6HR MAX TEMP:  85;

BELLE CHASSE   MOCLDY    75  72  90 CALM      30.02R
6HR MIN TEMP:  74; 6HR MAX TEMP:  78;

BOGALUSA*        N/A     75  71  88 CALM      30.05R
6HR MIN TEMP:  74; 6HR MAX TEMP:  77;

GALLIANO*      NOT AVBL
NEW ROADS*       N/A     71  70  98 MISG      30.03R
6HR MIN TEMP:  69; 6HR MAX TEMP:  73;

GONZALES*        N/A     73  73 100 CALM      30.02R
6HR MIN TEMP:  72; 6HR MAX TEMP:  76;

HAMMOND*       PTCLDY    73  70  88 CALM      30.05R
HOUMA*         PTCLDY    73  72  94 CALM      30.02R
PORT FOURCHON* SUNNY     86  75  70 SW6       30.04R HX  95

$$

MSZ070-080>082-201300-
SOUTHERN MISSISSIPPI

CITY           SKY/WX    TMP DP  RH WIND       PRES   REMARKS
MCCOMB         CLOUDY    73  71  93 CALM      30.05R
6HR MIN TEMP:  73; 6HR MAX TEMP:  77;

GULFPORT       PTCLDY    77  75  93 CALM      30.03R
6HR MIN TEMP:  76; 6HR MAX TEMP:  80;

BILOXI         PTCLDY    79  76  90 MISG      30.04R
6HR MIN TEMP:  79; 6HR MAX TEMP:  84;

PASCAGOULA     CLEAR     74  74 100 CALM      30.04R
6HR MIN TEMP:  74; 6HR MAX TEMP:  80;


$$

COASTAL OBSERVATIONS
LAKE AND NEARSHORE STATIONS

STATION/POSITION TIME  TEMP    WIND        PRES    WAVE
                       AIR SEA DIR/SP/G            HT/PER
                 (UTC) (F)     (DEG/KT/KT) (MB)    (FT/S)
PASCAGOULA       1100   81     320/  4/  5 1016.3
WAVELAND YACHT   1100   79     300/  2/  3 1016.0
GRAND ISLE       1100   84 88  210/  5/  8 1017.0
SOUTHWEST PASS   1100   85 88  210/  5/  8 1017.0
NEW CANAL        1100   80 83     CALM     1016.8
SHELL BEACH      1100   82 82  180/  1/  2 1016.3

OFFSHORE STATIONS

STATION/POSITION TIME  TEMP    WIND        PRES    WAVE
                       AIR SEA DIR/SP/G            HT/PER
                 (UTC) (F)     (DEG/KT/KT) (MB)    (FT/S)
64 S DAUPHIN ISL 1051   85 87  260/  6/  8 1017.5

$$




USA.gov is the U.S. government's official web portal to all federal, state and local government web resources and services.